"2010-11-24 00:00:00",363181,0.088,172.3,7.02,0.034,5.129,101.9002,4.148,4.889,23.01,0,109.7,13.53,4.91,134.3
"2010-11-24 00:00:30",363182,0.186,183,4.783,0.05,5.373,101.9333,4.233,4.941,22.87,0,109.7,13.53,5.00,145.0
"2010-11-24 00:01:00",363183,0.357,164.4,6.312,0.055,5.028,101.9653,4.315,5,22.8,0,109.7,13.53,5.08,126.4
"2010-11-24 00:01:30",363184,2.216,149.3,9.42,1.209,8.56,101.9735,4.335,5.309,23.07,0,109.7,13.5,5.10,111.3
"2010-11-24 00:02:00",363185,1.821,103.6,15.54,1.299,7.517,101.9718,4.331,5.204,23.36,0,109.7,13.5,5.10,65.6
"2010-11-24 00:02:30",363186,1.583,63.58,12.95,1.228,6.176,101.9441,4.26,5.163,23.89,0,109.7,13.5,5.03,25.6
"2010-11-24 00:03:00",363187,2.048,51.62,6.355,1.283,6.202,101.8906,4.124,5.171,24.45,0,109.7,13.5,4.89,13.6
"2010-11-24 00:03:30",363188,0.883,40.78,4.043,0.472,3.867,101.8454,4.008,5.09,24.74,0,109.7,13.5,4.77,2.8
"2010-11-24 00:04:00",363189,1.988,53.14,5.952,1.305,5.517,101.8001,3.893,4.946,24.82,0,109.7,13.49,4.66,15.1
"2010-11-24 00:04:30",363190,0.589,68.35,10.95,0.068,3.778,101.767,3.808,4.832,24.84,0,109.7,13.53,4.57,30.3
"2010-11-24 00:05:00",363191,0.831,95,12.72,0.716,4.392,101.7645,3.802,4.791,24.8,0,109.7,13.49,4.57,57.0
"2010-11-24 00:05:30",363192,2.276,136.7,11.02,1.295,7.271,101.7699,3.816,4.977,24.56,0,109.7,13.5,4.58,98.7
"2010-11-24 00:06:00",363193,2.982,158.2,7.817,1.21,8.82,101.8097,3.917,5.002,23.86,0,109.7,13.5,4.68,120.2
"2010-11-24 00:06:30",363194,1.887,161.1,5.964,1.146,6.445,101.8536,4.029,4.849,23.16,0,109.7,13.5,4.80,123.1
"2010-11-24 00:07:00",363195,2.885,179.5,10.7,1.29,8.16,101.8887,4.119,5.096,23.11,0,109.7,13.5,4.89,141.5
"2010-11-24 00:07:30",363196,1.632,182.4,1.612,0.45,5.213,101.9303,4.225,5.048,22.78,0,109.7,13.5,4.99,144.4
"2010-11-24 00:08:00",363197,2.876,190.9,6.701,1.278,7.809,101.9801,4.353,5.142,22.48,0,109.7,13.5,5.12,152.9
"2010-11-24 00:08:30",363198,1.569,185,1.498,0.056,5.442,102.0221,4.46,5.131,22.2,0,109.7,13.54,5.23,147.0
"2010-11-24 00:09:00",363199,2.573,188.3,6.395,1.293,7.697,102.0595,4.555,5.274,22.1,0,109.7,13.5,5.32,150.3
"2010-11-24 00:09:30",363200,2.688,186.8,6.602,1.289,7.926,102.089,4.63,5.349,21.98,0,109.7,13.5,5.40,148.8
"2010-11-24 00:10:00",363201,3.083,189.6,6.533,1.219,8.86,102.1095,4.683,5.572,22.07,0,109.7,13.51,5.45,151.6
"2010-11-24 00:10:30",363202,2.117,181.5,6.621,1.111,7.1,102.1281,4.73,5.558,21.92,0,109.7,13.51,5.50,143.5
"2010-11-24 00:11:00",363203,2.683,178.9,5.676,1.225,7.57,102.1307,4.737,5.526,21.8,0,109.7,13.51,5.51,140.9
"2010-11-24 00:11:30",363204,2.032,166.8,6.852,1.061,5.11,102.112,4.689,5.496,22,0,109.7,13.51,5.46,128.8
"2010-11-24 00:12:00",363205,2.658,163.3,8.63,1.29,7.239,102.0999,4.658,5.523,22.22,0,109.7,13.51,5.43,125.3
"2010-11-24 00:12:30",363206,1.349,155.4,2.313,0.06,4.981,102.0847,4.619,5.466,22.31,0,109.7,13.55,5.39,117.4
"2010-11-24 00:13:00",363207,2.486,162.2,6.134,1.297,7.248,102.0671,4.575,5.479,22.36,0,109.7,13.51,5.34,124.2
"2010-11-24 00:13:30",363208,2.39,175.3,8.74,1.114,7.856,102.0694,4.581,5.653,22.34,0,109.7,13.51,5.35,137.3
"2010-11-24 00:14:00",363209,3.746,186.6,5.589,1.186,9.31,102.0926,4.64,5.651,22.12,0,109.7,13.51,5.41,148.6
"2010-11-24 00:14:30",363210,2.714,175.2,6.426,0.973,6.295,102.1043,4.669,5.445,21.77,0,109.7,13.51,5.44,137.2
"2010-11-24 00:15:00",363211,3.541,180.7,8.63,1.222,7.349,102.1045,4.67,5.53,21.75,0,109.7,13.51,5.44,142.7
"2010-11-24 00:15:30",363212,2.39,188.2,7.144,0.813,6.306,102.1309,4.737,5.675,21.86,0,109.7,13.51,5.51,150.2
"2010-11-24 00:16:00",363213,3.324,195.5,6.392,1.242,7.576,102.1447,4.773,5.641,21.65,0,109.7,13.51,5.54,157.5
"2010-11-24 00:16:30",363214,3.481,194,7.731,1.228,7.8,102.1704,4.838,5.636,21.41,0,109.7,13.51,5.61,156.0
"2010-11-24 00:17:00",363215,3.229,190.6,7.037,1.279,7.902,102.1753,4.851,5.822,21.58,0,109.7,13.51,5.62,152.6
"2010-11-24 00:17:30",363216,3.792,199.1,7.471,1.115,9.28,102.1832,4.871,5.877,21.72,0,109.7,13.51,5.64,161.1
"2010-11-24 00:18:00",363217,3.179,204.8,8.31,1.189,6.628,102.1874,4.882,5.71,21.42,0,109.7,13.51,5.65,166.8
"2010-11-24 00:18:30",363218,2.646,199,1.157,0.088,5.36,102.203,4.922,5.69,21.1,0,109.7,13.55,5.69,161.0
"2010-11-24 00:19:00",363219,4.079,200.4,5.396,1.249,7.866,102.2188,4.962,5.863,21,0,109.7,13.51,5.73,162.4
"2010-11-24 00:19:30",363220,4.309,206.6,7.679,1.291,8.66,102.2352,5.004,5.919,20.93,0,109.7,13.51,5.77,168.6
"2010-11-24 00:20:00",363221,4.308,209.6,6.836,1.225,8.52,102.2415,5.02,5.923,20.51,0,109.7,13.51,5.79,171.6
"2010-11-24 00:20:30",363222,4.651,203.8,9.99,1.261,8.86,102.2723,5.099,5.984,20.69,0,109.7,13.51,5.87,165.8
"2010-11-24 00:21:00",363223,4.524,208.2,6.229,1.254,8.41,102.2743,5.104,6.104,20.93,0,109.7,13.5,5.87,170.2
"2010-11-24 00:21:30",363224,3.874,201.4,8.08,1.274,7.413,102.2743,5.104,5.947,20.8,0,109.7,13.5,5.87,163.4
"2010-11-24 00:22:00",363225,2.973,194.8,2.1,0.163,5.461,102.2743,5.104,5.89,20.89,0,109.7,13.54,5.87,156.8
"2010-11-24 00:22:30",363226,4.685,206.4,6.688,1.238,9.2,102.2743,5.104,6.128,21.11,0,109.8,13.5,5.87,168.4
"2010-11-24 00:23:00",363227,4.979,212.6,7.094,1.28,9.35,102.276,5.108,6.157,21.02,0,109.7,13.51,5.88,174.6
"2010-11-24 00:23:30",363228,4.364,211.1,7.307,1.269,8.44,102.3042,5.18,6.08,20.85,0,109.7,13.5,5.95,173.1
"2010-11-24 00:24:00",363229,4.687,212.4,6.315,1.267,8.89,102.3082,5.19,6.197,20.97,0,109.7,13.5,5.96,174.4
"2010-11-24 00:24:30",363230,3.945,206.5,6.642,1.254,7.121,102.3082,5.19,6.004,20.75,0,109.7,13.5,5.96,168.5
"2010-11-24 00:25:00",363231,3.045,199.9,1.054,0.056,5.546,102.3082,5.19,6.03,20.82,0,109.7,13.54,5.96,161.9
"2010-11-24 00:25:30",363232,4.137,210.8,6.406,1.301,7.693,102.3082,5.19,6.037,20.81,0,109.7,13.51,5.96,172.8
"2010-11-24 00:26:00",363233,4.653,217.7,6.049,1.195,9.3,102.3091,5.192,6.21,20.9,0,109.7,13.52,5.96,179.7
"2010-11-24 00:26:30",363234,4.869,222.4,5.658,1.08,10.32,102.3243,5.231,6.342,20.89,0,109.7,13.52,6.00,184.4
"2010-11-24 00:27:00",363235,4.149,222.8,7.228,1.284,8.61,102.3419,5.276,6.266,20.6,0,109.7,13.52,6.05,184.8
"2010-11-24 00:27:30",363236,3.898,225.1,5.923,1.254,7.451,102.3422,5.277,6.186,20.46,0,109.7,13.52,6.05,187.1
"2010-11-24 00:28:00",363237,3.541,223.9,5.046,1.037,6.7,102.3422,5.277,6.26,20.55,0,109.7,13.52,6.05,185.9
"2010-11-24 00:28:30",363238,3.298,221.7,1.654,0.093,5.575,102.3422,5.277,6.106,20.5,0,109.7,13.55,6.05,183.7
"2010-11-24 00:29:00",363239,4.968,230.5,5.908,1.188,9.56,102.3416,5.276,6.305,20.8,0,109.7,13.52,6.05,192.5
"2010-11-24 00:29:30",363240,5.077,227.7,5.26,0.851,10.47,102.3258,5.235,6.317,20.9,0,109.7,13.52,6.01,189.7
"2010-11-24 00:30:00",363241,3.883,218.7,6.276,1.364,8.88,102.3099,5.195,6.337,21.04,0,109.7,13.52,5.96,180.7
"2010-11-24 00:30:30",363242,4.559,220.7,6.984,1.153,9.29,102.3082,5.19,6.241,21.04,0,109.7,13.52,5.96,182.7
"2010-11-24 00:31:00",363243,3.221,212.5,5.777,1.056,6.123,102.2921,5.149,6.106,20.97,0,109.7,13.52,5.92,174.5
"2010-11-24 00:31:30",363244,2.696,213.3,2.919,0.081,5.441,102.2743,5.104,6.053,21.05,0,109.7,13.55,5.87,175.3
"2010-11-24 00:32:00",363245,3.275,222.2,4.423,0.918,5.908,102.2731,5.101,5.97,20.98,0,109.7,13.52,5.87,184.2
"2010-11-24 00:32:30",363246,4.622,231.6,6.578,1.252,9.07,102.2499,5.041,6.218,21.29,0,109.7,13.52,5.81,193.6
"2010-11-24 00:33:00",363247,4.944,234.1,4.914,1.044,10.07,102.2403,5.017,6.237,21.45,0,109.7,13.52,5.79,196.1
"2010-11-24 00:33:30",363248,4.647,231.7,6.911,1.274,8.91,102.2403,5.017,6.182,21.52,0,109.7,13.52,5.79,193.7
"2010-11-24 00:34:00",363249,3.969,227.6,8.39,1.201,7.331,102.2403,5.017,6.023,21.47,0,109.7,13.52,5.79,189.6
"2010-11-24 00:34:30",363250,3.129,219.8,0.986,0.078,5.601,102.255,5.054,6.008,21.45,0,109.7,13.55,5.82,181.8
"2010-11-24 00:35:00",363251,3.259,218.5,1.249,0.159,5.8,102.2743,5.104,5.96,21.39,0,109.7,13.55,5.87,180.5
"2010-11-24 00:35:30",363252,4.495,223.3,6.039,1.211,8.56,102.2782,5.114,6.14,21.47,0,109.7,13.52,5.88,185.3
"2010-11-24 00:36:00",363253,5.22,227.8,6.039,1.04,10.51,102.3068,5.187,6.228,21.49,0,109.7,13.52,5.96,189.8
"2010-11-24 00:36:30",363254,4.949,228.2,6.81,1.162,9.76,102.3085,5.191,6.284,21.49,0,109.7,13.51,5.96,190.2
"2010-11-24 00:37:00",363255,4.695,227.8,6.216,1.231,9.52,102.3082,5.19,6.307,21.51,0,109.7,13.51,5.96,189.8
"2010-11-24 00:37:30",363256,4.222,227.5,6.465,1.174,7.015,102.3085,5.191,6.063,21.22,0,109.7,13.51,5.96,189.5
"2010-11-24 00:38:00",363257,3.548,223.8,2.34,0.539,5.778,102.3088,5.192,6.059,21.17,0,109.7,13.51,5.96,185.8
"2010-11-24 00:38:30",363258,4.299,224.8,5.509,1.169,6.923,102.3082,5.19,6.147,21.34,0,109.7,13.51,5.96,186.8
"2010-11-24 00:39:00",363259,5.426,234,5.838,1.171,9.96,102.3088,5.192,6.302,21.48,0,109.7,13.51,5.96,196.0
"2010-11-24 00:39:30",363260,5.704,235.5,7.463,1.088,10.44,102.3082,5.19,6.319,21.56,0,109.7,13.51,5.96,197.5
"2010-11-24 00:40:00",363261,5.569,241.2,5.551,1.094,9.94,102.3085,5.191,6.287,21.55,0,109.7,13.51,5.96,203.2
"2010-11-24 00:40:30",363262,5.318,242,6.502,1.147,8.71,102.3082,5.19,6.203,21.45,0,109.7,13.51,5.96,204.0
"2010-11-24 00:41:00",363263,3.504,230.8,2.823,0.129,5.541,102.3011,5.172,6.027,21.31,0,109.7,13.54,5.94,192.8
"2010-11-24 00:41:30",363264,4.423,230.1,6.249,1.19,7.058,102.287,5.136,6.096,21.4,0,109.7,13.51,5.91,192.1
"2010-11-24 00:42:00",363265,5.261,232.7,6.928,1.247,9.08,102.2831,5.126,6.282,21.63,0,109.7,13.52,5.90,194.7
"2010-11-24 00:42:30",363266,5.525,234.7,5.47,1.195,10.29,102.2751,5.106,6.312,21.69,0,109.7,13.52,5.88,196.7
"2010-11-24 00:43:00",363267,5.962,236.2,4.351,0.999,10.5,102.2768,5.11,6.299,21.69,0,109.7,13.52,5.88,198.2
"2010-11-24 00:43:30",363268,4.466,229.6,5.949,1.266,7.286,102.2765,5.109,6.137,21.56,0,109.7,13.52,5.88,191.6
"2010-11-24 00:44:00",363269,3.634,224,2.878,0.445,5.82,102.2754,5.107,6.027,21.49,0,109.7,13.52,5.88,186.0
"2010-11-24 00:44:30",363270,4.452,227.5,6.408,1.174,7.263,102.2757,5.107,6.062,21.57,0,109.7,13.52,5.88,189.5
"2010-11-24 00:45:00",363271,5.246,228.4,6.654,1.316,9.13,102.2763,5.109,6.198,21.76,0,109.7,13.52,5.88,190.4
"2010-11-24 00:45:30",363272,5.493,226.7,6.559,1.19,9.21,102.2766,5.109,6.184,21.83,0,109.7,13.52,5.88,188.7
"2010-11-24 00:46:00",363273,5.866,226.4,5.164,1.026,10.84,102.2763,5.109,6.258,21.85,0,109.7,13.52,5.88,188.4
"2010-11-24 00:46:30",363274,5.524,221.8,6.551,1.188,9.38,102.2766,5.109,6.205,21.72,0,109.7,13.52,5.88,183.8
"2010-11-24 00:47:00",363275,4.043,214.4,1.454,0.18,5.853,102.2772,5.111,6.005,21.47,0,109.7,13.56,5.88,176.4
"2010-11-24 00:47:30",363276,5.261,221.2,7.37,1.311,7.884,102.2774,5.112,6.169,21.63,0,109.7,13.52,5.88,183.2
"2010-11-24 00:48:00",363277,5.449,222.2,7.328,1.258,8.25,102.28,5.118,6.186,21.65,0,109.7,13.52,5.89,184.2
"2010-11-24 00:48:30",363278,5.634,223.7,6.618,1.299,8.4,102.2798,5.118,6.226,21.72,0,109.7,13.52,5.89,185.7
"2010-11-24 00:49:00",363279,6.672,228.4,6.082,0.877,10.78,102.2775,5.112,6.303,21.78,0,109.7,13.52,5.88,190.4
"2010-11-24 00:49:30",363280,6.693,232.1,4.583,0.894,10.79,102.2775,5.112,6.291,21.83,0,109.7,13.52,5.88,194.1
"2010-11-24 00:50:00",363281,5.662,225.3,6.504,1.201,8.05,102.2777,5.112,6.155,21.61,0,109.7,13.52,5.88,187.3
"2010-11-24 00:50:30",363282,5.668,225.7,6.819,1.29,8.07,102.2794,5.117,6.155,21.57,0,109.7,13.52,5.89,187.7
"2010-11-24 00:51:00",363283,4.781,223.1,5.288,0.846,6.95,102.2871,5.136,6.171,21.55,0,109.7,13.52,5.91,185.1
"2010-11-24 00:51:30",363284,4.97,224.5,5.051,1.047,7.25,102.2941,5.154,6.111,21.46,0,109.7,13.52,5.92,186.5
"2010-11-24 00:52:00",363285,6.919,234.9,4.338,0.539,11.35,102.2992,5.167,6.333,21.7,0,109.7,13.52,5.94,196.9
"2010-11-24 00:52:30",363286,6.929,237.9,2.737,0.806,11.1,102.2975,5.163,6.301,21.64,0,109.7,13.51,5.93,199.9
"2010-11-24 00:53:00",363287,5.969,230.7,6.376,1.215,8.43,102.31,5.195,6.24,21.45,0,109.7,13.51,5.97,192.7
"2010-11-24 00:53:30",363288,5.983,231.6,6.209,1.232,7.741,102.314,5.205,6.085,21.12,0,109.7,13.51,5.98,193.6
"2010-11-24 00:54:00",363289,5.921,231.9,6.326,1.323,8.14,102.3238,5.23,6.193,20.89,0,109.7,13.51,6.00,193.9
"2010-11-24 00:54:30",363290,6.033,235.8,7.035,1.221,8.78,102.3462,5.287,6.161,20.82,0,109.7,13.51,6.06,197.8
"2010-11-24 00:55:00",363291,6.354,240,6.735,1.105,10.56,102.3468,5.289,6.422,21.3,0,109.7,13.51,6.06,202.0
"2010-11-24 00:55:30",363292,6.772,244.9,1.914,0.89,11.16,102.3453,5.285,6.431,21.32,0,109.7,13.51,6.06,206.9
"2010-11-24 00:56:00",363293,6.494,238.9,5.626,1.045,9.97,102.3445,5.283,6.327,21.18,0,109.7,13.51,6.05,200.9
"2010-11-24 00:56:30",363294,5.102,229.7,4.033,0.916,6.69,102.3442,5.282,6.274,21.02,0,109.6,13.51,6.05,191.7
"2010-11-24 00:57:00",363295,5.756,230.8,6.02,1.095,7.187,102.3436,5.281,6.154,20.79,0,109.7,13.51,6.05,192.8
"2010-11-24 00:57:30",363296,5.682,230,5.717,1.135,7.9,102.3592,5.321,6.238,20.54,0,109.7,13.52,6.09,192.0
"2010-11-24 00:58:00",363297,7.487,238.4,4.036,0.889,11.06,102.3796,5.373,6.463,20.32,0,109.8,13.52,6.14,200.4
"2010-11-24 00:58:30",363298,7.266,237.7,5.079,1,11.2,102.3934,5.408,6.513,20.09,0,109.7,13.52,6.18,199.7
"2010-11-24 00:59:00",363299,6.666,234.6,5.482,1.315,9.84,102.4115,5.454,6.494,20.23,0,109.7,13.52,6.23,196.6
"2010-11-24 00:59:30",363300,5.117,228.5,5.562,1.216,7.275,102.3948,5.411,6.418,20.75,0,109.7,13.52,6.18,190.5
"2010-11-24 01:00:00",363301,4.886,227.4,5.755,1.038,7.092,102.3764,5.364,6.304,20.8,0,109.7,13.52,6.14,189.4
"2010-11-24 01:00:30",363302,4.455,224.2,3.116,0.762,6.192,102.3679,5.343,6.218,20.89,0,109.7,13.52,6.11,186.2
"2010-11-24 01:01:00",363303,5.983,229.9,7.104,1.329,9.58,102.343,5.279,6.428,21.21,0,109.7,13.52,6.05,191.9
"2010-11-24 01:01:30",363304,7.419,235.2,3.661,0.667,11.49,102.3427,5.278,6.484,20.89,0,109.7,13.52,6.05,197.2
"2010-11-24 01:02:00",363305,7.529,235.5,3.967,0.624,11.17,102.3523,5.303,6.501,20.37,0,109.7,13.52,6.07,197.5
"2010-11-24 01:02:30",363306,7.105,233.7,4.873,1.109,10.05,102.3761,5.364,6.449,20.22,0,109.7,13.52,6.13,195.7
"2010-11-24 01:03:00",363307,6.269,228.5,6.159,1.062,7.255,102.3764,5.364,6.229,19.89,0,109.7,13.52,6.14,190.5
"2010-11-24 01:03:30",363308,5.618,228.9,4.248,0.833,6.602,102.3821,5.379,6.239,19.89,0,109.7,13.52,6.15,190.9
"2010-11-24 01:04:00",363309,6.236,240.6,8.96,1.203,9.27,102.3962,5.415,6.455,20.16,0,109.7,13.52,6.19,202.6
"2010-11-24 01:04:30",363310,7.399,247.1,2.89,0.784,11.69,102.4058,5.44,6.553,20.31,0,109.7,13.52,6.21,209.1
"2010-11-24 01:05:00",363311,7.21,240,4.682,0.804,11.15,102.4103,5.451,6.583,20.1,0,109.7,13.52,6.22,202.0
"2010-11-24 01:05:30",363312,6.885,238.2,5.285,0.952,10.26,102.4104,5.451,6.526,20.35,0,109.7,13.52,6.22,200.2
"2010-11-24 01:06:00",363313,5.454,228.4,2.724,0.46,6.611,102.4106,5.452,6.377,19.81,0,109.7,13.55,6.22,190.4
"2010-11-24 01:06:30",363314,6.646,228,7.324,1.322,7.481,102.4157,5.465,6.314,18.93,0,109.7,13.52,6.24,190.0
"2010-11-24 01:07:00",363315,7.034,226.2,7.035,1.367,8.94,102.4333,5.51,6.448,19.32,0,109.7,13.52,6.28,188.2
"2010-11-24 01:07:30",363316,8.05,231.5,5.377,1.053,11.46,102.4449,5.539,6.632,19.31,0,109.7,13.52,6.31,193.5
"2010-11-24 01:08:00",363317,8.83,234.6,4.345,0.839,11.61,102.4446,5.539,6.687,19.05,0,109.7,13.52,6.31,196.6
"2010-11-24 01:08:30",363318,9.68,233.1,4.211,0.89,11.66,102.455,5.565,6.693,18.73,0,109.7,13.51,6.34,195.1
"2010-11-24 01:09:00",363319,8.09,230.1,5.71,1.443,9.14,102.4782,5.625,6.573,18.44,0,109.7,13.51,6.40,192.1
"2010-11-24 01:09:30",363320,8.19,229.4,7.253,1.454,8.65,102.4791,5.627,6.558,18.49,0,109.7,13.51,6.40,191.4
"2010-11-24 01:10:00",363321,7.868,230,8.31,1.214,8.91,102.4791,5.627,6.6,18.57,0,109.8,13.51,6.40,192.0
"2010-11-24 01:10:30",363322,8.1,231.1,6.68,1.201,10.56,102.487,5.647,6.722,18.67,0,109.7,13.51,6.42,193.1
"2010-11-24 01:11:00",363323,8.55,232.5,5.526,0.974,11.19,102.4833,5.637,6.745,18.95,0,109.7,13.51,6.41,194.5
"2010-11-24 01:11:30",363324,8.05,232.1,5.327,1.045,10.6,102.4785,5.625,6.744,19.1,0,109.7,13.51,6.40,194.1
"2010-11-24 01:12:00",363325,7.176,228,6.007,1.199,9.38,102.4632,5.586,6.722,19.71,0,109.8,13.51,6.36,190.0
"2010-11-24 01:12:30",363326,6.225,223.8,4.412,0.791,7.107,102.4443,5.538,6.592,19.68,0,109.8,13.51,6.31,185.8
"2010-11-24 01:13:00",363327,6.539,223.5,7.77,1.376,7.673,102.4236,5.485,6.463,19.88,0,109.8,13.51,6.26,185.5
"2010-11-24 01:13:30",363328,6.254,222,6.062,1.243,8.3,102.3925,5.406,6.5,20.56,0,109.8,13.51,6.18,184.0
"2010-11-24 01:14:00",363329,7.06,224,5.14,1.063,9.82,102.3518,5.302,6.532,20.95,0,109.8,13.51,6.07,186.0
"2010-11-24 01:14:30",363330,6.909,219.4,6.967,1.182,9.23,102.3229,5.228,6.458,21.08,0,109.8,13.52,6.00,181.4
"2010-11-24 01:15:00",363331,6.766,215.2,6.46,1.285,8.19,102.2986,5.166,6.316,21.16,0,109.8,13.52,5.94,177.2
"2010-11-24 01:15:30",363332,8.05,221.3,6.36,1.135,9.81,102.2743,5.104,6.333,21.05,0,109.8,13.52,5.87,183.3
"2010-11-24 01:16:00",363333,7.191,216.6,5.559,1.096,7.391,102.2743,5.104,6.222,20.58,0,109.8,13.52,5.87,178.6
"2010-11-24 01:16:30",363334,8.33,224.5,5.248,1.117,9.85,102.2743,5.104,6.353,20.48,0,109.7,13.52,5.87,186.5
"2010-11-24 01:17:00",363335,8.18,223.2,6.244,1.22,9.46,102.2748,5.105,6.251,20.43,0,109.8,13.52,5.87,185.2
"2010-11-24 01:17:30",363336,8.32,222.1,6.902,1.25,9.47,102.2938,5.153,6.381,20.19,0,109.8,13.52,5.92,184.1
"2010-11-24 01:18:00",363337,8.4,225.5,5.783,1.101,9.91,102.3082,5.19,6.33,20.16,0,109.8,13.52,5.96,187.5
"2010-11-24 01:18:30",363338,8.43,226.2,6.265,1.143,9.84,102.3082,5.19,6.271,20.08,0,109.8,13.52,5.96,188.2
"2010-11-24 01:19:00",363339,8.11,222.7,5.553,1.184,9.81,102.3082,5.19,6.356,20.16,0,109.8,13.52,5.96,184.7
"2010-11-24 01:19:30",363340,8.51,223.7,5.633,1.209,9.92,102.3082,5.19,6.291,20.12,0,109.8,13.51,5.96,185.7
"2010-11-24 01:20:00",363341,8.15,220.3,6.415,1.334,8.85,102.3082,5.19,6.263,19.95,0,109.8,13.52,5.96,182.3
"2010-11-24 01:20:30",363342,8.25,221,6.9,1.267,8.4,102.3082,5.19,6.225,19.74,0,109.8,13.51,5.96,183.0
"2010-11-24 01:21:00",363343,8.9,226.2,6.28,1.076,9.96,102.3082,5.19,6.289,19.78,0,109.8,13.52,5.96,188.2
"2010-11-24 01:21:30",363344,8.62,224.7,5.933,1.07,10.15,102.3082,5.19,6.326,19.92,0,109.8,13.52,5.96,186.7
"2010-11-24 01:22:00",363345,8.62,227.6,5.845,1.142,10.18,102.3082,5.19,6.32,19.81,0,109.8,13.51,5.96,189.6
"2010-11-24 01:22:30",363346,8.49,227.6,5.411,1.246,9.74,102.3082,5.19,6.311,19.98,0,109.8,13.51,5.96,189.6
"2010-11-24 01:23:00",363347,7.326,222,5.493,1.091,7.528,102.3045,5.181,6.291,20.11,0,109.8,13.51,5.95,184.0
"2010-11-24 01:23:30",363348,7.865,226.6,6.438,1.358,8.82,102.2768,5.11,6.287,20.24,0,109.8,13.51,5.88,188.6
"2010-11-24 01:24:00",363349,8.27,230.1,5.799,1.046,9.89,102.2743,5.104,6.24,20.17,0,109.8,13.51,5.87,192.1
"2010-11-24 01:24:30",363350,7.645,228.6,5.199,1.079,9.67,102.2618,5.072,6.265,20.4,0,109.8,13.51,5.84,190.6
"2010-11-24 01:25:00",363351,8,229.5,5.7,1.009,9.86,102.2403,5.017,6.193,20.36,0,109.8,13.51,5.79,191.5
"2010-11-24 01:25:30",363352,7.056,226.6,5.663,1.25,8.57,102.2355,5.005,6.138,20.55,0,109.8,13.51,5.77,188.6
"2010-11-24 01:26:00",363353,6.396,226.2,5.72,1.155,7.663,102.212,4.945,6.06,20.69,0,109.8,13.51,5.71,188.2
"2010-11-24 01:26:30",363354,7.572,233.3,5.287,1.15,9.67,102.2007,4.916,6.089,20.74,0,109.8,13.51,5.68,195.3
"2010-11-24 01:27:00",363355,7.904,233.1,6.086,1.087,9.75,102.188,4.883,6.093,20.45,0,109.8,13.51,5.65,195.1
"2010-11-24 01:27:30",363356,8.73,233.1,3.965,0.65,11.04,102.1922,4.894,6.104,20.36,0,109.7,13.51,5.66,195.1
"2010-11-24 01:28:00",363357,8.7,230.3,5.144,1.122,10.48,102.205,4.927,6.084,20.13,0,109.8,13.51,5.70,192.3
"2010-11-24 01:28:30",363358,8.74,225.1,6.588,1.177,8.72,102.2103,4.94,6.008,19.76,0,109.8,13.51,5.71,187.1
"2010-11-24 01:29:00",363359,8.29,223.1,5.643,1.099,8.02,102.2293,4.989,6.044,19.63,0,109.8,13.51,5.76,185.1
"2010-11-24 01:29:30",363360,9.68,229,5.697,1.031,9.81,102.2403,5.017,6.046,19.5,0,109.8,13.51,5.79,191.0
"2010-11-24 01:30:00",363361,9.18,227.7,6.659,1.128,10.05,102.2403,5.017,6.112,19.84,0,109.7,13.51,5.79,189.7
"2010-11-24 01:30:30",363362,9.49,233.3,3.177,1.01,10.77,102.231,4.993,6.179,20.27,0,109.8,13.51,5.76,195.3
"2010-11-24 01:31:00",363363,10.05,230.4,3.627,0.74,10.96,102.2248,4.977,6.18,19.99,0,109.8,13.51,5.75,192.4
"2010-11-24 01:31:30",363364,9.86,228.2,5.173,1.149,10.01,102.2372,5.009,6.127,19.72,0,109.8,13.51,5.78,190.2
"2010-11-24 01:32:00",363365,9.19,224.4,6.325,1.301,8.32,102.2403,5.017,6,19.4,0,109.8,13.51,5.79,186.4
"2010-11-24 01:32:30",363366,8.72,223.1,5.383,1.049,8.95,102.2539,5.052,6.047,19.4,0,109.8,13.51,5.82,185.1
"2010-11-24 01:33:00",363367,9.54,222.9,5.702,1.117,10.04,102.2743,5.104,6.104,19.49,0,109.8,13.51,5.87,184.9
"2010-11-24 01:33:30",363368,8.43,229.8,8.39,1.075,10.16,102.2627,5.074,6.235,20.05,0,109.8,13.51,5.84,191.8
"2010-11-24 01:34:00",363369,8.52,230.5,5.141,0.526,10.67,102.2287,4.987,6.187,20.39,0,109.8,13.51,5.76,192.5
"2010-11-24 01:34:30",363370,8.08,227.8,6.826,1.392,9.11,102.1905,4.89,6.09,20.51,0,109.8,13.51,5.66,189.8
"2010-11-24 01:35:00",363371,8.94,226.1,6.562,1.425,9.21,102.1724,4.844,6.004,20.21,0,109.8,13.51,5.61,188.1
"2010-11-24 01:35:30",363372,8.81,222.4,5.369,0.909,7.826,102.1948,4.901,5.946,19.46,0,109.8,13.51,5.67,184.4
"2010-11-24 01:36:00",363373,10.27,229.5,6.339,1.159,10.62,102.2287,4.987,6.014,18.91,0,109.8,13.51,5.76,191.5
"2010-11-24 01:36:30",363374,10.62,232.4,4.855,0.414,11.82,102.2545,5.053,6.14,19.01,0,109.8,13.51,5.82,194.4
"2010-11-24 01:37:00",363375,9.3,230.4,5.782,0.882,11.08,102.2695,5.091,6.193,19.58,0,109.8,13.51,5.86,192.4
"2010-11-24 01:37:30",363376,8.03,237.5,7.725,1.296,9.62,102.2426,5.023,6.144,20,0,109.8,13.51,5.79,199.5
"2010-11-24 01:38:00",363377,6.507,223.6,7.409,1.12,7.345,102.22,4.965,6.042,20.2,0,109.7,13.51,5.73,185.6
"2010-11-24 01:38:30",363378,7.315,215.8,6.062,1.382,7.088,102.1857,4.877,5.886,20.21,0,109.8,13.51,5.65,177.8
"2010-11-24 01:39:00",363379,8.42,222.7,6.377,1.216,9.35,102.1721,4.843,5.959,20.37,0,109.8,13.51,5.61,184.7
"2010-11-24 01:39:30",363380,9.27,225.5,5.288,1.154,10.43,102.169,4.835,6.015,20.51,0,109.8,13.51,5.60,187.5
"2010-11-24 01:40:00",363381,9.71,227.4,3.721,0.964,10.68,102.1724,4.844,6.018,20.54,0,109.8,13.51,5.61,189.4
"2010-11-24 01:40:30",363382,10.11,226.2,2.755,0.828,10.43,102.1724,4.844,6.049,20.67,0,109.8,13.51,5.61,188.2
"2010-11-24 01:41:00",363383,10.44,227.2,5.29,0.688,10.38,102.1716,4.841,6.016,20.57,0,109.8,13.51,5.61,189.2
"2010-11-24 01:41:30",363384,10,225.4,5.166,1.158,9.55,102.1733,4.846,5.956,19.76,0,109.8,13.51,5.61,187.4
"2010-11-24 01:42:00",363385,8.74,222,4.79,0.852,7.728,102.2035,4.923,5.862,18.97,0,109.8,13.51,5.69,184.0
"2010-11-24 01:42:30",363386,9.36,225.9,6.246,1.175,9.33,102.2284,4.987,5.927,19.17,0,109.8,13.5,5.76,187.9
"2010-11-24 01:43:00",363387,8.73,227.4,5.69,1.133,10.29,102.2355,5.005,6.042,19.81,0,109.7,13.51,5.77,189.4
"2010-11-24 01:43:30",363388,9.85,224.8,4.268,0.937,10.84,102.2095,4.938,6.115,20.32,0,109.8,13.51,5.71,186.8
"2010-11-24 01:44:00",363389,10,225.9,5.068,1.016,10.49,102.2064,4.93,6.091,20.01,0,109.8,13.51,5.70,187.9
"2010-11-24 01:44:30",363390,10.07,228,4.173,0.794,10.53,102.2064,4.93,6.066,19.95,0,109.8,13.5,5.70,190.0
"2010-11-24 01:45:00",363391,7.283,225.2,6.333,1.292,6.396,102.2007,4.916,5.891,20.02,0,109.8,13.51,5.68,187.2
"2010-11-24 01:45:30",363392,8.06,235.6,6.679,0.986,9.16,102.1637,4.821,5.903,20.5,0,109.8,13.5,5.59,197.6
"2010-11-24 01:46:00",363393,6.609,228.1,5.867,1.058,7.427,102.128,4.73,5.806,20.67,0,109.8,13.51,5.50,190.1
"2010-11-24 01:46:30",363394,8,234.2,6.12,0.953,9.72,102.0935,4.642,5.922,21.04,0,109.8,13.51,5.41,196.2
"2010-11-24 01:47:00",363395,8.84,233.2,4.765,0.614,10.29,102.0564,4.547,5.861,21.25,0,109.8,13.51,5.32,195.2
"2010-11-24 01:47:30",363396,9.42,231,3.525,0.957,9.96,102.0169,4.446,5.785,21.47,0,109.7,13.51,5.21,193.0
"2010-11-24 01:48:00",363397,10.29,223.6,3.794,0.8,10.18,101.9973,4.396,5.675,21.41,0,109.8,13.51,5.16,185.6
"2010-11-24 01:48:30",363398,9.98,219.2,8.21,1.115,8.71,102.001,4.406,5.627,20.67,0,109.8,13.51,5.17,181.2
"2010-11-24 01:49:00",363399,9.59,216.9,5.097,1.493,7.668,102.0027,4.41,5.403,20.5,0,109.8,13.51,5.18,178.9
"2010-11-24 01:49:30",363400,9.17,215.4,7.026,1.197,8.15,102.0061,4.419,5.567,20.89,0,109.8,13.51,5.19,177.4